Location: Cahas Mountain Overlook
(37.0833°N, 80.1000°W)
Time: 01:15:19
(UTC-05:00)

Vanguard 2 Rocket - Visible Passes

Search period start: 07 December 2023 00:00
Search period end: 17 December 2023 00:00
Orbit: 552 x 3312 km, 32.9° (Epoch: 06 December)

Date Brightness Start Highest point End Pass type
(mag) Time Alt. Az. Time Alt. Az. Time Alt. Az.
07 Dec 9.9 17:00:30 10° W 17:20:15 77° S 17:38:14 10° ESE visible
07 Dec 9.8 19:18:29 10° W 19:37:45 55° SSW 19:49:17 20° SE visible
07 Dec 10.2 21:39:53 10° W 21:51:55 22° SW 21:54:59 21° SSW visible
08 Dec 9.8 18:14:06 10° W 18:34:01 65° SSW 18:50:15 10° SE visible
08 Dec 10.0 20:33:34 10° W 20:49:39 34° SW 20:57:42 21° S visible
09 Dec 9.9 17:10:15 10° W 17:29:46 72° SSW 17:47:50 10° ESE visible
09 Dec 10.1 19:28:21 10° W 19:46:45 46° SW 20:00:35 11° SSE visible
09 Dec 10.5 21:52:14 10° W 22:00:28 15° SW 22:06:20 11° SSW visible
10 Dec 10.0 18:23:53 10° W 18:43:13 57° SSW 18:59:27 10° SE visible
10 Dec 10.5 20:44:18 10° W 20:58:17 25° SW 21:09:22 10° S visible
11 Dec 10.0 17:20:02 10° W 17:39:10 66° SSW 17:57:15 10° ESE visible
11 Dec 10.4 19:38:30 10° W 19:55:34 36° SW 20:09:22 10° SSE visible
12 Dec 10.3 18:33:47 10° W 18:52:14 47° SSW 19:08:18 10° SE visible
12 Dec 10.7 20:56:13 10° W 21:06:52 18° SW 21:15:59 10° SSW visible
13 Dec 10.2 17:29:51 10° W 17:48:24 58° SSW 18:06:21 10° SE visible
13 Dec 10.7 19:49:09 10° W 20:04:15 28° SW 20:17:08 10° S visible
14 Dec 10.6 18:43:56 10° W 19:01:07 38° SW 19:16:38 10° SSE visible
14 Dec 11.1 21:12:27 10° WSW 21:15:27 11° SW 21:18:20 10° SW visible
15 Dec 10.5 17:39:48 10° W 17:57:29 48° SSW 18:15:04 10° SE visible
15 Dec 10.9 20:00:51 10° W 20:12:54 20° SW 20:23:46 10° S visible
16 Dec 10.9 18:54:35 10° W 19:09:54 29° SW 19:24:17 10° S visible
